Terug naar catalogus

COSMOS 1250

ActiefMilitairLEO
NORAD 12320·PAYLOAD·🇷🇺 Russia

Gelanceerd Mar 6, 1981 vanaf Plesetsk Cosmodrome

Loading…

Volgende Passages (komende 24 uur)

TLE

VersSource: Space-Track

Epoch: Sep 14, 2026, 16:41 UTC

1 12320U 81022A   26257.69525032 -.00000019  00000-0 -12367-4 0  9990
2 12320  74.0274 229.8348 0053153 280.3787 253.8392 12.58283477 91168

Volg COSMOS 1250 in realtime met AllMySat

Download on the App Store